Regional Weather Roundup
Issued by NWS

Home | Current Version | Previous Version | Graphics & Text | Print | Product List | Glossary On
Versions: 1 2 3 4 5 6 7 8 9 10 11 12 13 14 15 16 17 18 19 20 21 22 23 24 25 26 27 28 29 30 31 32 33 34 35 36 37 38 39 40 41 42 43 44 45 46 47 48 49 50
000
ASUS45 KCYS 050310
RWRWY

WYOMING REGIONAL WEATHER ROUNDUP
NATIONAL WEATHER SERVICE CHEYENNE WY
900 PM MDT SAT JUL 04 2015

NOTE:  "FAIR" INDICATES FEW OR NO CLOUDS BELOW 12,000 FEET
WITH NO SIGNIFICANT WEATHER AND/OR OBSTRUCTIONS TO VISIBILITY.

WYZ001-050400-
YELLOWSTONE NATIONAL PARK

CITY           SKY/WX    TMP DP  RH WIND       PRES   REMARKS
LK YELLOWSTONE   N/A     68  41  37 CALM      30.17R
W YELLOWSTONE  NOT AVBL

$$
WYZ002>013-054>058-071-098>099-050400-
NORTHERN WYOMING

CITY           SKY/WX    TMP DP  RH WIND       PRES   REMARKS
JACKSON        FAIR      75  37  25 S5        30.04S
CODY           FAIR      84  43  23 N9        29.90R
GREYBULL       FAIR      91  45  20 CALM      29.75R
WORLAND        FAIR      89  44  20 SE9       29.79R
SHERIDAN       FAIR      76  58  53 W6        29.81R
BUFFALO        FAIR      74  57  55 W7        29.90S
GILLETTE       FAIR      73  50  44 S10       29.85R
HULETT         FAIR      72  55  56 SE9       29.87R
NEWCASTLE      FAIR      73  48  40 E8        29.88R

$$
WYZ014>020-022>026-101>103-050400-
CENTRAL WYOMING

CITY           SKY/WX    TMP DP  RH WIND       PRES   REMARKS
BIG PINEY      FAIR      71  41  33 NW10      30.10R
PINEDALE       FAIR      72  39  30 W7        30.11R
DUBOIS         FAIR      75  34  22 W13G18    30.07R
LANDER         FAIR      82  49  31 W8        29.89R
RIVERTON       FAIR      85  40  20 NE13      29.88S
CASPER         FAIR      81  52  36 E14G22    29.91R
DOUGLAS        FAIR      77  59  53 SE9       29.93R

$$
WYZ021-027>030-104>119-050400-
SOUTHERN WYOMING

CITY           SKY/WX    TMP DP  RH WIND       PRES   REMARKS
EVANSTON       FAIR      69  50  50 S8        30.12S
KEMMERER       FAIR     N/A N/A N/A W6        30.13R
FORT BRIDGER   LGT RAIN  75  46  35 W20G30    30.16R
ROCK SPRINGS   FAIR      74  44  34 SW18G24   30.07R
DIXON          FAIR      74  45  35 S10G21    30.11S
RAWLINS        LGT RAIN  71  52  50 MISG      30.10R
SARATOGA       FAIR      68  46  45 S7        30.11S
LARAMIE        FAIR      71  42  35 SW9       30.13S
CHEYENNE       FAIR      72  52  49 S9        30.03S
TORRINGTON     FAIR      74  56  53 E8        29.86R
PINE BLUFFS    FAIR      73  54  49 S5        29.97R

$$



USA.gov is the U.S. government's official web portal to all federal, state and local government web resources and services.